Location: Czekanka
(50.4925°N, 19.2643°E)
Time: 12:25:27
(UTC+00:00)

FENGYUN 1C DEB - Pass Details

Date: 25 November 2025
Orbit: 800 x 866 km, 98.6° (Epoch: 04 December)

Event Time Altitude Azimuth Distance (km) Brightness Sun altitude
Rises 05:10:34 0° 4° (N) 3,327 ? -9.7°
Reaches altitude 10° 05:13:50 10° 343° (NNW) 2,388 ? -9.2°
Maximum altitude 05:16:48 16° 308° (NW) 2,023 ? -8.8°
Drops below altitude 10° 05:19:46 10° 273° (W) 2,380 ? -8.4°
Enters shadow 05:22:01 - 257° (WSW) 2,989 ? -8.0°
